Date,TemperatureHighF,TemperatureAvgF,TemperatureLowF,DewpointHighF,DewpointAvgF,DewpointLowF,HumidityHigh,HumidityAvg,HumidityLow,PressureMaxIn,PressureMinIn,WindSpeedMaxMPH,WindSpeedAvgMPH,GustSpeedMaxMPH,PrecipitationSumIn
2013-1-1,27,22,18,17,9,6,63,54,47,28.97,28.85,10,4,13,0.00
2013-1-2,26,22,18,15,11,6,64,58,56,29.00,28.88,10,3,13,0.00
2013-1-3,28,23,15,21,13,3,73,62,52,29.00,28.88,9,4,12,0.00
2013-1-4,28,25,21,19,15,12,73,63,53,29.00,28.88,17,7,20,0.00
2013-1-5,33,27,20,30,22,14,96,78,58,29.09,28.85,10,3,13,0.00
2013-1-6,33,32,30,31,29,25,93,88,78,29.09,28.73,13,5,13,0.00
2013-1-7,32,29,26,27,22,18,84,72,58,29.18,28.97,17,4,18,0.00
2013-1-8,39,30,25,24,21,18,76,67,53,29.06,28.97,12,3,12,0.00
2013-1-9,42,36,30,30,24,18,78,62,44,29.26,28.85,19,6,24,0.00
2013-1-10,39,32,24,30,23,19,87,68,54,29.38,28.97,15,-164,15,0.00
2013-1-11,52,42,34,51,42,31,100,97,88,28.97,28.61,15,-402,19,0.00
2013-1-12,58,50,42,47,43,37,100,80,55,28.79,28.64,12,-325,15,0.00
2013-1-13,41,34,26,37,34,25,100,99,83,28.88,28.61,15,-49,15,0.00
2013-1-14,26,22,18,25,18,14,91,81,73,29.26,28.88,15,-38,15,0.00
2013-1-15,29,22,15,20,15,10,82,74,54,29.23,28.97,8,-103,8,0.00
2013-1-16,33,27,21,24,17,14,78,63,45,28.97,28.64,13,-79,15,0.00
2013-1-17,32,28,19,26,17,5,78,62,48,29.12,28.79,14,-294,14,0.00
2013-1-18,33,25,17,17,11,4,55,51,44,29.23,28.79,17,-539,22,0.00
2013-1-19,46,39,33,30,24,16,68,55,47,28.79,28.47,20,8,25,0.00
2013-1-20,40,20,15,27,6,1,57,49,43,29.00,28.44,28,-30,34,0.00
2013-1-21,19,13,4,7,2,-8,64,56,50,28.97,28.79,15,-74,15,0.00
2013-1-22,13,6,-2,0,-6,-14,53,52,47,29.09,28.94,8,-514,8,0.00
2013-1-23,22,15,10,8,2,-3,60,52,47,29.09,28.88,0,-999,0,0.00
2013-1-24,20,14,7,4,1,-3,60,53,44,29.41,28.94,0,-999,0,0.00
2013-1-25,28,22,16,16,10,1,67,56,47,29.29,28.82,9,-548,10,0.00
2013-1-26,30,25,22,16,14,11,68,59,50,29.23,28.85,13,3,13,0.00
2013-1-27,34,27,20,27,15,8,81,59,49,29.26,28.88,21,5,24,0.00
2013-1-28,68,40,32,45,40,27,100,100,81,28.91,28.70,10,-60,12,0.00
2013-1-29,55,47,35,55,47,35,100,100,100,28.85,28.29,22,6,25,0.00
2013-1-30,56,47,29,56,46,24,100,99,83,28.29,28.02,23,-287,24,0.00
2013-1-31,28,22,16,24,14,8,86,71,57,28.73,28.17,25,-177,25,0.00
2013-2-1,21,14,9,9,4,-4,76,61,52,29.09,28.73,15,5,15,0.00
2013-2-2,27,17,10,17,7,-3,72,61,52,29.00,28.76,9,-34,10,0.00
2013-2-3,26,16,8,13,6,-2,65,59,53,28.82,28.67,15,3,17,0.00
2013-2-4,28,22,16,18,13,9,71,65,59,28.85,28.70,6,1,6,0.00
2013-2-5,31,23,12,23,14,3,79,65,53,28.79,28.61,13,3,14,0.00
2013-2-6,30,23,15,19,13,6,75,62,51,29.09,28.79,12,-9,13,0.00
2013-2-7,39,30,23,27,21,13,80,66,60,29.06,28.64,12,-299,12,0.00
2013-2-8,30,26,18,26,18,9,88,70,56,29.18,28.61,19,-73,23,0.00
2013-2-9,30,21,11,17,11,2,68,61,52,29.23,29.06,12,-22,12,0.00
2013-2-10,38,31,22,37,22,14,100,71,54,29.06,28.50,15,2,18,0.00
2013-2-11,42,35,30,42,29,21,100,79,63,28.73,28.38,17,-521,17,0.00
2013-2-12,33,30,27,21,20,17,70,62,55,28.88,28.73,14,1,16,0.00
2013-2-13,38,31,26,23,20,17,72,61,51,28.76,28.56,7,3,10,0.00
2013-2-14,40,34,28,30,26,22,80,72,64,28.70,28.50,17,5,24,0.00
2013-2-15,32,27,21,26,15,8,76,56,45,28.97,28.70,13,5,17,0.00
2013-2-16,27,21,14,14,9,4,68,57,47,28.94,28.82,13,3,15,0.00
2013-2-17,24,17,11,7,5,2,65,54,43,29.03,28.88,12,3,13,0.00
2013-2-18,44,32,18,37,19,4,86,57,48,29.00,28.41,19,8,24,0.00
2013-2-19,42,27,17,40,20,7,99,72,54,28.76,28.26,22,9,27,0.00
2013-2-20,22,19,15,10,8,4,72,58,51,29.06,28.76,18,8,22,0.00
2013-2-21,28,23,20,14,11,9,63,58,52,29.18,29.03,14,5,20,0.00
2013-2-22,32,28,21,30,22,10,90,76,59,29.03,28.70,16,6,20,0.00
2013-2-23,34,29,23,27,19,14,82,63,51,28.76,28.70,14,4,15,0.00
2013-2-24,36,29,23,23,20,14,72,65,55,28.97,28.73,14,3,15,0.00
2013-2-25,40,31,22,23,20,15,76,62,48,29.03,28.91,10,2,13,0.00
2013-2-26,34,30,26,32,23,16,99,74,53,28.91,28.32,17,-137,18,0.00
2013-2-27,36,34,32,35,33,31,100,96,90,28.41,28.29,6,1,10,0.00
2013-2-28,36,32,28,32,29,24,98,87,73,28.79,28.38,15,-24,15,0.00
2013-3-1,28,26,24,25,17,14,84,66,55,28.94,28.79,13,-280,13,0.00
2013-3-2,26,22,21,15,12,10,64,61,56,28.91,28.88,8,-348,8,0.00
2013-3-3,30,23,20,13,11,9,64,55,45,28.88,28.82,13,0,13,0.00
2013-3-4,34,24,15,17,11,6,64,54,44,28.97,28.88,6,-15,6,0.00
2013-3-5,38,27,20,21,14,9,68,56,48,28.94,28.64,17,-16,17,0.00
2013-3-6,38,30,25,24,21,18,75,67,53,29.03,28.67,15,6,17,0.00
2013-3-7,40,33,29,26,21,15,77,59,44,29.21,29.03,11,-252,11,0.00
2013-3-8,42,32,22,22,17,14,66,52,41,29.29,29.18,9,-434,9,0.00
2013-3-9,46,37,28,27,22,17,66,54,47,29.21,28.91,17,-30,17,0.00
2013-3-10,59,55,50,38,36,33,56,50,46,28.73,28.61,13,-621,24,0.00
2013-3-11,52,46,36,47,41,34,98,83,56,28.61,28.35,15,-370,16,0.00
2013-3-12,36,33,29,35,29,23,98,84,65,28.73,28.53,14,5,15,0.00
2013-3-13,31,28,23,26,17,10,84,63,50,29.03,28.70,15,-419,15,0.00
2013-3-14,40,29,20,19,14,10,62,52,43,29.09,28.91,11,-260,13,0.00
2013-3-15,44,35,30,31,25,15,86,66,48,28.94,28.64,12,4,12,0.00
2013-3-16,34,30,27,30,24,19,89,78,65,28.85,28.59,9,3,12,0.00
2013-3-17,31,25,21,22,16,10,73,63,48,29.09,28.85,16,5,16,0.00
2013-3-18,34,28,21,34,25,14,100,86,69,28.97,28.41,17,7,20,0.00
2013-3-19,32,26,22,32,18,13,100,70,56,28.79,28.47,18,8,27,0.00
2013-3-20,30,24,16,15,11,6,67,56,46,28.79,28.73,16,6,18,0.00
2013-3-21,32,24,15,22,14,6,71,63,54,28.79,28.70,13,6,17,0.00
2013-3-22,39,30,24,20,16,13,62,54,44,28.85,28.79,13,5,15,0.00
2013-3-23,39,29,22,20,17,15,70,58,46,28.94,28.85,9,3,10,0.00
2013-3-24,37,30,24,22,18,15,72,61,49,28.85,28.50,15,5,20,0.00
2013-3-25,38,32,28,23,20,18,70,59,51,28.76,28.41,18,8,23,0.00
2013-3-26,43,35,30,26,24,21,75,63,47,28.97,28.76,14,5,17,0.00
2013-3-27,46,36,28,26,22,16,80,58,40,29.06,28.97,19,6,23,0.00
2013-3-28,50,38,28,26,20,16,63,48,37,29.12,29.06,13,-53,17,0.00
2013-3-29,50,39,28,24,19,16,56,44,32,29.12,29.03,10,-106,10,0.00
2013-3-30,55,42,28,24,20,14,53,41,27,29.06,28.76,8,-451,8,0.00
2013-3-31,56,46,38,39,29,22,78,52,37,28.76,28.50,16,-16,23,0.00
2013-4-1,39,32,25,23,13,7,68,45,32,28.94,28.59,19,-333,24,0.00
2013-4-2,42,30,22,16,10,6,59,42,29,29.09,28.94,11,-379,12,0.00
2013-4-3,42,32,23,13,10,7,53,39,29,29.26,29.09,15,-64,15,0.00
2013-4-4,55,41,28,18,8,-12,41,29,6,29.18,28.79,12,-390,12,0.00
2013-4-5,47,41,33,22,15,10,64,36,27,29.03,28.79,17,-142,17,0.00
2013-4-6,57,45,34,25,19,14,51,38,22,29.06,28.61,26,-384,33,0.00
2013-4-7,56,50,40,41,32,24,67,50,34,28.85,28.47,17,-75,22,0.00
2013-4-8,62,45,37,57,36,24,98,70,52,28.85,28.53,21,6,29,0.00
2013-4-9,59,48,41,46,41,37,89,78,59,28.91,28.73,15,5,18,0.00
2013-4-10,46,41,38,42,40,37,100,95,84,28.82,28.73,12,5,17,0.00
2013-4-11,38,37,36,38,37,36,100,100,100,28.79,28.47,25,8,25,0.00
2013-4-12,42,38,34,40,37,34,100,96,82,28.61,28.38,14,4,18,0.00
2013-4-13,42,38,34,36,28,22,89,67,50,28.82,28.61,14,-443,21,0.00
2013-4-14,51,40,33,33,27,23,68,59,50,28.94,28.73,19,-83,20,0.00
2013-4-15,67,54,40,55,43,29,94,68,48,28.79,28.70,16,-217,20,0.00
2013-4-16,60,52,45,55,40,27,97,67,36,29.09,28.73,13,-369,13,0.00
2013-4-17,60,48,40,43,33,24,99,59,40,29.15,28.85,13,-561,15,0.00
2013-4-18,74,56,43,65,54,42,100,95,67,28.88,28.44,12,-887,13,0.00
2013-4-19,56,43,34,56,36,24,100,78,52,28.61,28.26,23,-690,23,0.00
2013-4-20,42,35,28,28,20,13,80,54,40,29.26,28.61,0,-999,0,0.00
2013-4-21,50,38,24,27,20,14,69,49,38,29.44,29.26,15,-727,15,0.00
2013-4-22,62,48,33,33,28,20,72,48,28,29.29,29.03,13,-569,13,0.00
2013-4-23,69,54,43,52,39,27,96,58,37,29.03,28.67,14,-795,16,0.00
2013-4-24,47,38,33,47,36,28,100,96,78,28.97,28.61,12,-803,16,0.00
2013-4-25,51,40,34,40,29,22,88,66,41,29.18,28.94,10,-817,12,0.00
2013-4-26,61,47,32,34,29,23,75,51,36,29.29,29.18,10,-795,10,0.00
2013-4-27,68,56,40,37,33,28,64,43,30,29.21,28.97,20,-431,20,0.00
2013-4-28,54,52,50,54,43,29,100,75,39,28.97,28.67,8,-694,8,0.00
2013-4-29,73,60,50,55,51,46,100,75,42,28.79,28.70,10,-166,10,0.00
2013-4-30,73,62,54,55,51,49,86,68,47,28.91,28.79,23,2,24,0.00
2013-5-1,82,69,55,54,51,48,82,56,35,29.09,28.91,15,-177,20,0.00
2013-5-2,81,68,57,53,47,38,69,48,33,29.09,29.00,15,-246,15,0.00
2013-5-3,81,68,58,53,43,34,58,41,29,29.00,28.91,23,-609,23,0.00
2013-5-4,73,64,57,44,37,31,51,38,23,28.97,28.91,19,-448,23,0.00
2013-5-5,74,63,53,42,34,21,48,35,13,28.97,28.88,11,-382,12,0.00
2013-5-6,77,63,49,44,38,31,55,39,31,28.94,28.85,17,-105,17,0.00
2013-5-7,78,65,52,49,44,38,69,47,34,28.94,28.85,9,-619,9,0.00
2013-5-8,80,67,54,48,45,43,71,47,30,28.91,28.82,9,-344,11,0.00
2013-5-9,83,70,56,48,46,38,70,45,21,28.85,28.79,6,-408,6,0.00
2013-5-10,68,58,43,64,50,38,100,78,51,28.79,28.64,12,-643,15,0.00
2013-5-11,64,48,40,44,37,27,84,67,42,28.79,28.61,20,-57,20,0.00
2013-5-12,50,41,36,29,24,18,73,52,40,28.94,28.76,19,6,22,0.00
2013-5-13,57,45,31,24,21,14,64,40,22,29.03,28.94,11,3,13,0.00
2013-5-14,80,62,47,54,36,22,65,38,33,28.94,28.59,15,4,21,0.00
2013-5-15,82,73,65,56,47,34,66,43,27,28.70,28.50,17,6,20,0.00
2013-5-16,84,70,55,45,39,34,47,33,19,28.88,28.67,13,3,15,0.00
2013-5-17,81,67,54,47,38,32,44,36,30,29.00,28.88,11,4,14,0.00
2013-5-18,83,69,56,51,41,31,45,36,32,29.00,28.91,13,5,17,0.00
2013-5-19,88,73,58,58,49,36,60,43,34,28.94,28.76,12,4,14,0.00
2013-5-20,91,78,67,66,60,56,75,55,37,28.82,28.67,15,0,19,0.00
2013-5-21,87,78,68,63,57,54,73,51,36,28.73,28.61,14,-157,16,0.00
2013-5-22,82,71,62,62,58,53,87,66,40,28.64,28.53,20,4,20,0.00
2013-5-23,64,54,45,58,50,42,96,86,70,29.03,28.59,15,4,18,0.00
2013-5-24,60,48,37,42,34,29,90,59,38,29.21,29.03,12,4,13,0.00
2013-5-25,67,55,41,38,34,30,76,48,28,29.26,29.15,8,2,10,0.00
2013-5-26,72,58,43,37,32,28,68,39,22,29.21,29.09,8,1,12,0.00
2013-5-27,60,53,49,52,40,26,100,65,37,29.12,28.85,14,5,16,0.00
2013-5-28,76,64,52,73,62,52,100,94,77,28.85,28.67,15,4,16,0.00
2013-5-29,83,74,66,66,61,56,92,67,43,28.88,28.67,12,3,14,0.00
2013-5-30,89,77,66,68,62,58,81,62,41,28.94,28.85,15,3,20,0.00
2013-5-31,80,73,68,66,63,60,90,71,57,28.88,28.73,16,4,17,0.00
2013-6-1,80,70,63,66,61,57,99,76,49,28.76,28.59,15,4,20,0.00
2013-6-2,71,64,54,61,52,40,91,67,49,28.88,28.56,12,4,15,0.00
2013-6-3,69,57,44,40,37,34,73,48,33,28.97,28.88,10,3,12,0.00
2013-6-4,75,63,50,45,40,36,65,46,32,29.06,28.97,8,2,10,0.00
2013-6-5,78,65,54,44,38,30,48,37,26,29.06,28.85,13,3,15,0.00
2013-6-6,72,62,56,54,45,39,70,54,42,28.88,28.73,11,3,13,0.00
2013-6-7,64,57,50,48,46,44,83,69,55,28.82,28.76,10,3,10,0.00
2013-6-8,77,63,49,52,47,44,84,59,37,28.94,28.79,8,1,8,0.00
2013-6-9,81,70,61,57,53,48,71,55,43,28.97,28.82,15,6,17,0.00
2013-6-10,77,67,62,66,62,55,97,85,60,28.82,28.61,10,2,11,0.00
2013-6-11,84,72,63,64,61,58,96,70,43,28.82,28.67,10,3,11,0.00
2013-6-12,83,72,64,66,62,58,91,71,52,28.82,28.53,12,2,17,0.00
2013-6-13,80,68,58,66,58,49,100,75,37,28.85,28.44,14,5,17,0.00
2013-6-14,79,67,56,56,51,45,88,58,35,28.97,28.85,9,3,11,0.00
2013-6-15,83,69,58,61,54,49,78,61,39,28.97,28.82,8,2,10,0.00
2013-6-16,85,72,63,64,58,48,97,65,35,28.82,28.67,11,4,14,0.00
2013-6-17,89,76,63,61,53,49,72,48,29,28.85,28.73,10,2,11,0.00
2013-6-18,74,66,58,60,49,36,84,56,37,28.97,28.79,11,4,12,0.00
2013-6-19,80,65,50,48,43,36,63,45,32,29.06,28.97,10,2,13,0.00
2013-6-20,85,72,57,52,48,43,61,43,30,29.09,29.03,11,-30,15,0.00
2013-6-21,90,77,65,58,53,48,65,45,31,29.09,28.94,7,-515,7,0.00
2013-6-22,90,79,70,68,62,49,78,58,42,28.97,28.88,7,-949,7,0.00
2013-6-23,93,81,70,68,62,60,79,56,36,28.97,28.88,0,-970,0,0.00
2013-6-24,91,80,70,67,63,59,78,57,39,28.97,28.82,6,-908,7,0.00
2013-6-25,87,74,66,71,66,60,100,77,54,28.91,28.73,9,-912,9,0.00
2013-6-26,88,74,65,71,66,63,100,78,45,28.82,28.64,8,-916,8,0.00
2013-6-27,87,74,67,69,66,58,96,75,46,28.67,28.56,11,-377,13,0.00
2013-6-28,85,70,62,66,62,52,100,78,40,28.56,28.44,12,3,16,0.00
2013-6-29,73,67,62,68,62,57,100,85,64,28.64,28.47,8,2,10,0.00
2013-6-30,80,69,62,59,56,49,82,64,42,28.85,28.64,11,3,14,0.00
2013-7-1,73,64,58,52,47,40,69,55,44,28.97,28.85,10,5,12,0.00
2013-7-2,77,66,58,60,54,46,76,65,54,28.97,28.91,8,4,11,0.00
2013-7-3,86,72,63,66,61,57,87,70,40,29.00,28.91,13,3,17,0.00
2013-7-4,85,74,66,63,58,50,88,60,32,29.03,28.97,7,2,10,0.00
2013-7-5,89,77,68,64,59,55,82,57,35,29.03,28.94,8,2,9,0.00
2013-7-6,91,78,69,67,64,61,82,63,41,29.00,28.91,10,2,16,0.00
2013-7-7,86,75,69,67,65,61,91,71,45,28.97,28.88,7,2,9,0.00
2013-7-8,86,76,69,71,66,62,90,70,52,28.94,28.88,10,3,11,0.00
2013-7-9,91,77,70,72,69,65,92,78,51,28.91,28.79,10,2,13,0.00
2013-7-10,89,79,68,76,66,50,96,68,39,28.85,28.70,15,4,15,0.00
2013-7-11,83,71,61,55,52,49,72,51,33,28.97,28.85,10,3,11,0.00
2013-7-12,84,70,58,58,53,51,82,57,37,29.06,28.97,8,-284,10,0.00
2013-7-13,88,75,61,63,57,54,83,55,33,29.12,29.03,11,-562,11,0.00
2013-7-14,94,80,66,68,63,60,81,58,38,29.15,29.09,10,-245,10,0.00
2013-7-15,94,81,71,76,69,64,88,69,45,29.21,29.15,7,-409,7,0.00
2013-7-16,95,85,75,74,69,63,89,63,38,29.23,29.15,8,-904,8,0.00
2013-7-17,94,84,76,77,71,67,79,66,49,29.21,29.09,6,-782,6,0.00
2013-7-18,94,82,75,73,70,66,79,67,45,29.09,28.88,5,-631,5,0.00
2013-7-19,96,85,76,73,69,65,83,60,38,28.88,28.64,15,-405,15,0.00
2013-7-20,88,77,68,75,64,54,100,69,34,28.85,28.64,7,-893,7,0.00
2013-7-21,86,75,64,61,59,56,86,59,39,28.91,28.82,5,-818,5,0.00
2013-7-22,86,75,67,67,62,58,92,67,41,28.85,28.67,11,-370,11,0.00
2013-7-23,87,73,59,69,61,45,91,66,45,28.82,28.59,17,-4,18,0.00
2013-7-24,75,64,54,49,45,43,67,52,39,28.94,28.82,13,0,13,0.00
2013-7-25,80,67,55,53,47,45,79,52,33,29.00,28.94,8,2,11,0.00
2013-7-26,84,71,60,60,52,47,75,52,37,29.00,28.82,16,4,17,0.00
2013-7-27,80,67,58,64,57,47,86,71,44,28.82,28.64,13,-18,13,0.00
2013-7-28,68,59,53,55,48,45,84,68,46,28.88,28.73,8,-651,8,0.00
2013-7-29,72,62,56,56,50,47,84,67,46,29.09,28.85,10,-472,10,0.00
2013-7-30,82,68,53,58,52,48,86,61,40,29.12,29.00,8,2,10,0.00
2013-7-31,74,69,66,66,62,57,94,80,66,29.03,28.82,8,2,9,0.00
2013-8-1,81,69,61,64,57,46,97,69,38,28.85,28.79,12,4,15,0.00
2013-8-2,74,66,58,63,56,48,90,70,59,28.85,28.73,10,-89,11,0.00
2013-8-3,79,70,60,63,54,46,94,62,33,28.97,28.79,10,-142,10,0.00
2013-8-4,77,66,56,51,48,45,75,54,37,29.09,28.97,10,-597,10,0.00
2013-8-5,76,67,56,54,49,45,74,54,40,29.00,28.85,7,-361,10,0.00
2013-8-6,82,71,63,65,61,53,91,72,51,28.85,28.79,12,3,17,0.00
2013-8-7,84,71,64,73,67,62,97,86,58,28.85,28.73,12,2,13,0.00
2013-8-8,79,70,62,68,59,52,91,70,47,28.91,28.82,8,-140,8,0.00
2013-8-9,81,71,61,58,54,48,82,56,37,28.91,28.85,11,-10,11,0.00
2013-8-10,81,71,64,58,55,50,78,59,39,29.03,28.91,8,-2,8,0.00
2013-8-11,81,71,62,59,54,50,83,57,38,29.03,28.94,12,-15,13,0.00
2013-8-12,76,67,63,74,63,51,100,89,55,28.97,28.76,6,-262,6,0.00
2013-8-13,69,61,54,66,50,42,100,70,41,28.97,28.76,12,-736,12,0.00
2013-8-14,71,59,48,47,44,41,78,58,40,29.06,28.97,11,-561,11,0.00
2013-8-15,75,63,50,50,47,44,84,58,37,29.06,28.97,6,-547,6,0.00
2013-8-16,79,66,56,53,49,46,76,55,36,29.09,29.00,8,-2,8,0.00
2013-8-17,81,68,56,55,51,47,82,58,38,29.15,29.09,10,2,10,0.00
2013-8-18,81,69,57,62,54,51,84,61,39,29.12,29.00,6,2,8,0.00
2013-8-19,83,72,60,58,55,53,79,57,38,29.03,28.94,7,-402,7,0.00
2013-8-20,85,74,63,62,59,55,78,61,41,29.06,28.97,5,-689,5,0.00
2013-8-21,88,77,66,66,62,59,81,62,43,29.03,28.91,0,-999,0,0.00
2013-8-22,81,73,66,67,64,61,94,75,55,28.97,28.88,0,-999,0,0.00
2013-8-23,79,69,60,65,54,45,97,63,30,29.09,28.94,0,-999,0,0.00
2013-8-24,81,70,57,58,52,49,78,55,36,29.21,29.09,6,-929,6,0.00
2013-8-25,85,73,61,60,56,51,74,57,41,29.18,29.06,4,-933,4,0.00
2013-8-26,87,77,68,70,63,57,76,62,49,29.09,28.88,6,-900,6,0.00
2013-8-27,88,78,70,75,71,67,99,80,61,28.94,28.73,0,-999,0,0.00
2013-8-28,81,74,68,75,71,65,100,89,71,28.91,28.70,0,-999,0,0.00
2013-8-29,86,74,64,70,66,62,97,77,50,28.97,28.91,0,-999,0,0.00
2013-8-30,86,76,66,71,66,62,96,72,48,28.91,28.67,9,-772,9,0.00
2013-8-31,84,74,68,71,66,62,98,78,51,28.76,28.67,9,-397,9,0.00
2013-9-1,85,74,66,70,67,63,96,80,57,28.76,28.61,6,-822,6,0.00
2013-9-2,76,69,60,68,59,47,100,74,47,28.85,28.64,0,-999,0,0.00
2013-9-3,73,64,58,52,49,47,73,61,43,28.94,28.85,8,-949,8,0.00
2013-9-4,78,66,55,58,54,51,88,68,45,29.00,28.91,4,-978,4,0.00
2013-9-5,69,62,53,58,46,40,83,57,37,29.15,28.97,0,-999,0,0.00
2013-9-6,75,63,51,50,47,41,78,57,40,29.15,28.97,0,-999,0,0.00
2013-9-7,79,68,60,64,53,43,78,60,52,28.97,28.82,0,-999,0,0.00
2013-9-8,76,71,62,63,54,49,90,56,47,28.97,28.85,0,-999,0,0.00
2013-9-9,79,73,60,74,68,48,98,84,63,28.94,28.79,0,-999,0,0.00
2013-9-10,90,84,73,70,65,62,91,54,39,28.94,28.79,0,-999,0,0.00
2013-9-11,90,77,68,71,67,62,100,75,49,28.94,28.85,0,-999,0,0.00
2013-9-12,77,68,56,68,59,44,100,77,41,28.88,28.76,0,-999,0,0.00
2013-9-13,60,54,47,45,40,36,75,61,46,29.00,28.88,0,-999,0,0.00
2013-9-14,66,53,42,43,39,37,83,62,40,29.09,28.97,0,-999,0,0.00
2013-9-15,63,55,49,54,46,40,93,74,53,29.00,28.94,0,-999,0,0.00
2013-9-16,62,55,47,53,47,39,96,76,48,29.23,29.00,0,-999,0,0.00
2013-9-17,66,53,40,48,42,36,88,68,48,29.26,29.09,0,-999,0,0.00
2013-9-18,75,61,51,54,48,38,84,65,43,29.09,28.91,0,-999,0,0.00
2013-9-19,78,67,59,65,60,54,93,80,63,28.94,28.79,0,-999,0,0.00
2013-9-20,78,69,65,70,66,64,100,90,64,28.79,28.64,0,-999,0,0.00
2013-9-21,67,61,55,64,51,42,98,72,44,28.76,28.59,0,-999,0,0.00
2013-9-22,58,53,45,44,37,34,74,56,46,28.94,28.76,0,-999,0,0.00
2013-9-23,62,51,42,44,40,37,84,67,46,29.06,28.94,0,-999,0,0.00
2013-9-24,64,52,41,46,42,37,88,70,48,29.00,28.88,0,-999,0,0.00
2013-9-25,67,55,45,51,47,43,94,75,51,28.88,28.85,0,-999,0,0.00
2013-9-26,72,57,45,52,46,41,93,69,40,29.00,28.88,0,-999,0,0.00
2013-9-27,72,59,47,55,49,42,87,72,48,29.12,29.00,0,-999,0,0.00
2013-9-28,75,62,53,56,51,47,93,70,40,29.06,28.91,3,-982,3,0.00
2013-9-29,62,60,55,60,54,50,94,84,71,28.91,28.85,6,-644,6,0.00
2013-9-30,69,59,50,55,51,47,98,77,47,28.91,28.82,8,-929,8,0.00
2013-10-1,71,61,52,60,56,48,100,84,65,28.91,28.85,6,-762,6,0.00
2013-10-2,74,65,58,61,52,42,100,68,34,28.97,28.85,7,-665,7,0.00
2013-10-3,75,65,58,65,58,47,92,77,67,28.94,28.85,0,-999,0,0.00
2013-10-4,78,69,65,68,64,61,94,85,69,28.94,28.85,0,-999,0,0.00
2013-10-5,75,68,64,68,65,61,97,88,75,28.94,28.73,0,-999,0,0.00
2013-10-6,69,63,53,67,61,53,100,94,77,28.73,28.56,0,-999,0,0.00
2013-10-7,60,51,43,54,44,40,100,79,53,29.00,28.59,7,-970,7,0.00
2013-10-8,65,52,42,45,42,39,91,70,45,29.15,28.97,0,-999,0,0.00
2013-10-9,66,54,43,48,42,38,90,67,42,29.18,29.09,0,-999,0,0.00
2013-10-10,66,54,43,48,41,37,92,65,40,29.09,29.00,0,-999,0,0.00
2013-10-11,68,54,41,52,43,36,86,68,45,29.03,28.94,0,-999,0,0.00
2013-10-12,72,60,50,57,49,45,93,70,41,28.97,28.91,0,-999,0,0.00
2013-10-13,64,57,48,57,43,35,87,61,39,29.23,28.97,0,-999,0,0.00
2013-10-14,60,50,42,41,38,36,89,66,45,29.26,29.12,0,-999,0,0.00
2013-10-15,61,53,43,60,47,38,100,83,72,29.12,28.70,0,-999,0,0.00
2013-10-16,59,53,49,59,48,40,100,83,60,28.79,28.67,0,-999,0,0.00
2013-10-17,52,49,46,49,45,43,93,87,80,28.76,28.61,0,-999,0,0.00
2013-10-18,60,48,40,45,40,37,99,77,44,28.79,28.73,0,-999,0,0.00
2013-10-19,48,44,40,43,38,35,94,81,66,28.79,28.61,0,-999,0,0.00
2013-10-20,56,47,39,40,38,35,94,73,47,28.76,28.67,0,-999,0,0.00
2013-10-21,55,49,41,46,38,28,82,67,55,28.73,28.67,0,-999,0,0.00
2013-10-22,48,40,32,29,26,23,72,56,43,28.79,28.73,0,-999,0,0.00
2013-10-23,45,37,31,31,28,24,83,70,43,28.79,28.67,0,-999,0,0.00
2013-10-24,45,36,31,31,28,24,89,74,47,29.03,28.79,0,-999,0,0.00
2013-10-25,46,37,31,33,28,21,91,70,46,29.18,28.94,0,-999,0,0.00
2013-10-26,49,43,38,34,26,22,60,50,45,28.94,28.64,0,-999,0,0.00
2013-10-27,51,41,33,31,26,22,74,56,41,28.91,28.82,0,-999,0,0.00
2013-10-28,52,42,34,35,29,23,70,60,51,29.23,28.88,0,-999,0,0.00
2013-10-29,53,42,34,35,30,26,73,63,50,29.29,29.09,0,-999,0,0.00
2013-10-30,60,48,36,53,38,31,94,71,47,29.09,28.82,0,-999,0,0.00
2013-10-31,59,57,54,59,57,53,100,99,94,28.82,28.05,5,-985,5,0.00
2013-11-1,58,47,45,56,40,36,100,75,63,28.53,28.08,0,-999,0,0.00
2013-11-2,47,45,35,43,38,32,97,78,62,28.97,28.53,0,-999,0,0.00
2013-11-3,47,39,30,32,29,27,88,67,51,29.26,28.97,0,-999,0,0.00
2013-11-4,49,41,33,32,26,24,81,57,39,29.29,29.12,0,-999,0,0.00
2013-11-5,54,49,43,44,39,32,80,68,62,29.21,29.00,0,-999,0,0.00
2013-11-6,54,49,40,52,44,36,99,83,55,29.00,28.64,0,-999,0,0.00
2013-11-7,44,38,32,39,28,23,92,68,47,29.00,28.85,0,-999,0,0.00
2013-11-8,42,36,31,28,25,21,84,65,46,29.15,28.97,0,-999,0,0.00
2013-11-9,55,46,37,36,30,24,61,54,47,29.00,28.67,0,-999,0,0.00
2013-11-10,47,41,35,31,24,21,61,51,45,29.12,28.76,0,-999,0,0.00
2013-11-11,43,38,25,35,26,18,92,61,53,29.18,28.88,0,-999,0,0.00
2013-11-12,33,26,20,19,16,11,78,63,47,29.38,29.18,0,-999,0,0.00
2013-11-13,37,28,20,19,14,11,76,56,39,29.35,29.00,0,-999,0,0.00
2013-11-14,48,40,29,24,19,13,48,41,37,29.00,28.82,0,-999,0,0.00
2013-11-15,49,42,37,25,20,17,50,42,38,28.88,28.85,0,-999,0,0.00
2013-11-16,54,47,36,52,39,21,94,74,50,28.91,28.61,0,-999,0,0.00
2013-11-17,60,55,44,59,53,38,100,94,76,28.61,28.14,0,-999,0,0.00
2013-11-18,45,39,33,38,27,18,78,62,53,28.97,28.38,0,-999,0,0.00
2013-11-19,38,34,30,20,18,16,55,51,44,29.21,28.97,0,-999,0,0.00
2013-11-20,43,37,26,24,22,17,71,54,46,29.23,29.03,0,-999,0,0.00
2013-11-21,50,43,38,43,34,24,96,72,55,29.09,29.00,0,-999,0,0.00
2013-11-22,44,38,27,44,34,20,98,84,61,29.21,28.97,4,-925,4,0.00
2013-11-23,28,23,14,21,12,2,80,60,43,29.32,29.09,18,-205,18,0.00
2013-11-24,24,18,12,10,5,1,60,54,45,29.41,29.21,13,-62,14,0.00
2013-11-25,32,25,18,22,11,4,75,52,41,29.21,28.91,7,-892,7,0.00
2013-11-26,34,30,26,25,22,18,78,71,62,28.91,28.76,0,-999,0,0.00
2013-11-27,27,22,17,18,10,5,72,55,45,29.00,28.76,0,-999,0,0.00
2013-11-28,29,24,18,16,11,5,65,52,46,29.21,29.00,0,-999,0,0.00
2013-11-29,33,27,22,18,14,12,71,56,48,29.44,29.21,0,-999,0,0.00
2013-11-30,43,34,27,24,19,15,57,54,48,29.32,28.91,0,-999,0,0.00
2013-12-1,42,36,33,29,25,21,75,62,54,28.91,28.82,0,-999,0,0.00
2013-12-2,39,33,30,27,22,17,79,63,49,28.82,28.70,0,-999,0,0.00
2013-12-3,38,35,31,36,29,18,96,79,54,28.73,28.64,0,-999,0,0.00
2013-12-4,55,45,38,55,45,36,100,98,94,28.70,28.47,0,-999,0,0.00
2013-12-5,55,40,30,55,30,17,99,67,50,28.97,28.44,0,-999,0,0.00
2013-12-6,30,25,19,18,12,6,57,54,52,29.21,28.97,0,-999,0,0.00
2013-12-7,25,19,14,10,6,2,61,53,47,29.41,29.21,0,-999,0,0.00
2013-12-8,27,19,12,23,9,2,80,61,52,29.38,28.79,0,-999,0,0.00
2013-12-9,29,26,18,23,18,6,80,71,55,28.94,28.70,0,-999,0,0.00
2013-12-10,21,18,9,9,5,-2,58,53,43,29.00,28.79,0,-999,0,0.00
2013-12-11,27,18,10,14,7,-2,66,58,53,29.26,29.00,0,-999,0,0.00
2013-12-12,18,12,7,3,-1,-4,56,51,43,29.23,29.06,0,-999,0,0.00
2013-12-13,30,26,23,17,15,14,64,58,53,29.06,28.97,0,-999,0,0.00
2013-12-14,23,20,18,15,13,10,78,72,60,29.03,28.64,0,-999,0,0.00
2013-12-15,25,20,16,19,12,7,79,70,57,28.85,28.64,0,-999,0,0.00
2013-12-16,24,15,7,11,6,-1,68,63,54,28.97,28.79,0,-999,0,0.00
2013-12-17,28,22,14,20,15,6,80,72,60,28.82,28.70,0,-999,0,0.00
2013-12-18,30,26,23,22,17,10,83,64,52,28.94,28.70,0,-999,0,0.00
2013-12-19,42,35,26,36,28,12,100,77,53,28.79,28.64,0,-999,0,0.00
2013-12-20,40,35,33,40,35,33,100,100,100,28.70,28.53,0,-999,0,0.00
2013-12-21,34,32,30,34,32,30,100,100,100,28.67,28.50,0,-999,0,0.00
2013-12-22,35,32,30,35,32,30,100,100,100,28.79,28.38,0,-999,0,0.00
2013-12-23,31,27,17,31,24,9,100,86,64,29.12,28.79,0,-999,0,0.00
2013-12-24,20,15,10,9,7,2,76,66,58,29.32,29.09,0,-999,0,0.00
2013-12-25,24,20,12,20,13,6,83,73,64,29.29,28.91,0,-999,0,0.00
2013-12-26,28,26,23,22,18,14,87,72,57,29.09,28.85,0,-999,0,0.00
2013-12-27,38,33,27,29,26,21,79,74,65,29.12,28.91,0,-999,0,0.00
2013-12-28,46,38,32,30,28,24,78,66,52,28.94,28.73,0,-999,0,0.00
2013-12-29,40,34,21,28,22,10,81,61,51,28.85,28.53,0,-999,0,0.00
2013-12-30,23,20,16,10,6,4,60,53,48,29.06,28.85,0,-999,0,0.00
2013-12-31,21,16,13,9,6,3,65,58,52,29.12,28.88,0,-999,0,0.00
2014-1-1,16,12,10,7,3,1,66,63,59,29.15,29.00,0,-999,0,0.00
2014-1-2,15,10,2,5,0,-8,69,61,57,29.09,28.88,0,-999,0,0.00